Live-Position
3D-Globus wird geladen...
Über Starlink 5788
Group: 3 satellites
Beschreibung wird geladen...
Nächste Überflüge
Passes for default location (London). Set your location on the main map for personalized predictions.
Höhenverlauf
Loading altitude history...
No altitude history available
Zweizeiliger Elementsatz
1 57148U 23090AZ 26121.60550566 .00002256 00000-0 93797-4 0 9998
2 57148 43.0042 324.7070 0001397 265.5066 94.5625 15.26731936158449
Epoch: 1. Mai 2026 •
Age: 17 hours
Aktueller Status
Höhe 484.9 km
Geschwindigkeit 7.63 km/s
Subsatellitenpunkt 13.04°N,
3.63°W
Startdatum 23. Juni 2023
Alter 2.8 years
Typ internet
Startgruppe
Falcon 9 •
Group 5-12 •
51 satellites
Starlink 6132
57101
Starlink 6111 57102
Starlink 6130 57104
Starlink 6097 57105
Starlink 6118 57106
Starlink 6131 57107
Starlink 6099 57108
Starlink 6139 57109
Starlink 6134 57110
Starlink 6140 57111
Starlink 6141 57112
Starlink 6142 57113
Starlink 6125 57114
Starlink 6085 57115
Starlink 6129 57116
Starlink 6148 57117
Starlink 6150 57119
Starlink 6147 57120
Starlink 6152 57121
Starlink 6149 57122
...and 30 more
Technische Details
Klassifizierung Payload
Masse 305.00 kg
Trockenmasse 290.00 kg
Gesamtmasse 305.00 kg
Länge 0.20 m
Durchmesser 2.80 m
Spannweite 9.00 m
Form Box + pan
Hersteller SPXS
Bus-Typ Starlink
Phasenstatus In Orbit
Besitzer/Staat SPXS/US
Most Searched
Loading...